Weather History for Whiting Fld NAS, FL

Change the Weather History Date:

Saturday, January 19, 2013

  Actual Average Record
Temperature  
Mean Temperature 50 °F -  
Max Temperature 64 °F 59 °F 71 °F (1999)
Min Temperature 36 °F 40 °F 25 °F (1997)
Degree Days  
Heating Degree Days 15    
Moisture  
Dew Point 37 °F    
Average Humidity 65    
Maximum Humidity 86    
Minimum Humidity 39    
Precipitation  
Precipitation 0.00 in - - ()
Sea Level Pressure  
Sea Level Pressure 30.29 in    
Wind  
Wind Speed 4 mph (NE)    
Max Wind Speed 8 mph    
Max Gust Speed -    
Visibility 10 miles    
Events      
Averages and records for this station are not official NWS values.
T = Trace of Precipitation, MM = Missing Value Source: NWS Daily Summary

Daily Weather History Graph

Daily Weather History Graph

Search for Another Location

Airport:

Trip Planner

Search our weather history database for the weather conditions in past years. The results will help you decide how hot, cold, wet, or windy it might be!

Date:

Astronomy

Jan. 19, 2013 Rise Set
Actual Time 6:45 AM CST 5:12 PM CST
Civil Twilight 6:19 AM CST 5:38 PM CST
Nautical Twilight 5:50 AM CST 6:08 PM CST
Astronomical Twilight 5:21 AM CST 6:37 PM CST
Moon 11:34 AM CST (1/19) 12:25 AM CST (1/19)
Length of Visible Light 11h 19m
Length of Day
10h 27m
First Quarter, 57% of the Moon is Illuminated
Jan 19
First Quarter
Jan 26
Full
Feb 3
Last Quarter
Feb 10
New
Feb 17
First Quarter

Hourly Weather History & Observations

Time (CST) Temp. Windchill Dew Point Humidity Pressure Visibility Wind Dir Wind Speed Gust Speed Precip Events Conditions
12:56 AM 37.0 °F 34.5 °F 30.9 °F 79% 30.34 in 10.0 mi NNE 3.5 mph - N/A   Clear
1:56 AM 37.0 °F 32.4 °F 32.0 °F 82% 30.35 in 10.0 mi North 5.8 mph - N/A   Clear
2:56 AM 36.0 °F 31.1 °F 30.0 °F 79% 30.35 in 10.0 mi North 5.8 mph - N/A   Clear
3:56 AM 37.9 °F 34.4 °F 30.0 °F 73% 30.34 in 10.0 mi NNE 4.6 mph - N/A   Clear
4:56 AM 37.0 °F 34.5 °F 28.9 °F 73% 30.34 in 10.0 mi NNE 3.5 mph - N/A   Clear
5:56 AM 37.0 °F 33.3 °F 28.9 °F 73% 30.34 in 10.0 mi NNE 4.6 mph - N/A   Clear
6:56 AM 37.0 °F 34.5 °F 28.9 °F 73% 30.36 in 10.0 mi NNE 3.5 mph - N/A   Clear
7:56 AM 42.1 °F 40.2 °F 30.9 °F 65% 30.38 in 10.0 mi NE 3.5 mph - N/A   Clear
8:56 AM 48.9 °F - 32.0 °F 52% 30.38 in 10.0 mi ENE 8.1 mph - N/A   Clear
9:56 AM 55.9 °F - 32.0 °F 40% 30.38 in 10.0 mi ENE 6.9 mph - N/A   Clear
10:56 AM 61.0 °F - 36.0 °F 39% 30.34 in 10.0 mi ENE 8.1 mph - N/A   Clear
11:56 AM 62.1 °F - 39.0 °F 43% 30.29 in 10.0 mi ENE 4.6 mph - N/A   Mostly Cloudy
12:56 PM 64.0 °F - 39.9 °F 41% 30.27 in 10.0 mi ENE 4.6 mph - N/A   Mostly Cloudy
1:56 PM 64.9 °F - 39.9 °F 40% 30.24 in 10.0 mi Calm Calm - 0.00 in   Overcast
2:56 PM 64.0 °F - 41.0 °F 43% 30.22 in 10.0 mi NE 3.5 mph - N/A   Overcast
3:56 PM 63.0 °F - 39.9 °F 43% 30.22 in 10.0 mi ENE 3.5 mph - N/A   Clear
4:56 PM 59.0 °F - 46.0 °F 62% 30.23 in 10.0 mi Calm Calm - N/A   Clear
5:56 PM 53.1 °F - 44.1 °F 71% 30.23 in 10.0 mi Calm Calm - N/A   Clear
6:56 PM 52.0 °F - 43.0 °F 71% 30.24 in 10.0 mi East 3.5 mph - N/A   Mostly Cloudy
7:56 PM 50.0 °F - 44.1 °F 80% 30.25 in 10.0 mi Calm Calm - 0.00 in   Mostly Cloudy
8:56 PM 46.0 °F - 41.0 °F 83% 30.24 in 10.0 mi Calm Calm - N/A   Clear
9:56 PM 45.0 °F - 39.9 °F 82% 30.22 in 10.0 mi Calm Calm - 0.00 in   Clear
10:56 PM 43.0 °F - 39.0 °F 86% 30.22 in 10.0 mi Calm Calm - N/A   Clear
11:56 PM 43.0 °F - 39.0 °F 86% 30.22 in 10.0 mi Calm Calm - 0.00 in   Clear